Theta_e
309 309 310 313 314 313 314 315 318 321 324 325 325 326 326 327 327 328 329 328 327 326 327 325 326 328 324 318 314 315 316 316 316 316 317 318 318 318 319 320 321 321 320 320 320 321 322 322 322 321 321 321 321 319 316 316 317 320 328 330 324 324 325 322 321 317 316 319 314 311 315 319 318 315 316 317 317 317 319 321 324 325 323 323 321 320 330 333
310 309 310 314 315 313 312 312 315 318 322 325 325 325 327 328 327 328 329 328 327 326 327 325 326 328 326 322 316 316 318 317 318 319 317 318 318 319 320 321 321 321 320 321 321 321 322 322 322 322 322 323 322 322 319 316 316 320 325 325 327 329 322 317 317 313 313 315 313 312 314 317 318 315 317 319 318 319 322 322 323 326 324 323 323 321 330 333
310 310 310 313 314 312 310 311 314 317 319 322 323 325 327 328 327 327 328 328 327 326 326 325 326 328 327 324 318 316 319 320 321 320 317 318 319 319 320 321 322 322 321 322 322 321 322 322 323 323 323 324 323 324 321 316 314 315 319 324 327 322 316 314 314 313 314 313 312 313 313 314 316 315 318 318 319 323 324 322 321 325 324 323 324 323 329 333
311 311 311 313 313 312 311 311 313 316 318 319 321 323 325 327 327 327 327 328 327 326 326 325 326 328 325 322 318 316 318 319 320 319 318 318 320 319 320 321 322 323 322 322 323 322 323 322 323 323 324 324 323 324 319 315 313 312 318 324 320 314 314 315 313 313 314 313 312 313 313 314 314 315 317 317 319 324 321 318 319 320 319 321 324 323 328 332
312 312 311 312 313 312 311 311 312 316 318 318 319 322 324 326 327 327 328 328 327 326 326 325 326 327 324 320 317 315 315 317 319 319 319 320 321 321 321 322 322 323 323 323 323 323 324 323 323 323 324 324 324 325 318 314 313 312 316 317 313 311 312 313 312 313 312 312 313 312 313 314 314 314 317 317 318 321 319 317 317 317 317 318 321 323 326 330
312 312 312 313 313 311 312 313 313 317 319 319 319 320 322 326 327 327 328 328 327 326 325 325 326 326 324 320 316 315 315 318 321 319 321 322 323 323 321 322 323 324 323 323 323 323 324 323 324 323 323 324 324 326 321 318 315 313 314 311 311 311 310 312 311 312 312 312 312 312 314 314 313 314 315 317 318 317 317 317 317 317 318 318 321 323 325 327
312 313 313 313 313 312 312 313 314 317 319 319 320 320 321 324 326 327 328 328 327 326 325 325 326 323 322 319 315 315 315 319 322 319 321 323 323 324 322 323 323 325 324 324 324 323 324 323 324 323 323 325 322 323 321 320 318 315 315 311 311 311 310 312 311 311 312 311 313 312 313 313 313 314 314 315 317 317 317 316 316 316 318 319 321 323 323 323
313 313 313 313 313 312 311 312 315 317 317 317 319 320 321 324 326 326 326 328 326 325 325 325 325 321 320 318 314 315 315 317 322 320 321 323 323 324 324 324 324 324 324 325 324 324 324 323 325 323 325 325 321 320 319 320 319 315 315 312 311 313 312 313 312 312 312 311 312 311 312 313 313 313 312 314 316 317 317 316 316 315 317 318 319 322 323 323
312 313 313 313 313 312 311 312 314 315 315 315 317 319 321 323 326 326 325 327 326 325 325 325 324 320 319 318 315 315 315 317 322 320 319 322 322 322 323 324 324 324 324 325 324 324 324 323 324 324 325 324 320 319 318 322 320 312 313 311 310 313 313 313 312 312 312 312 312 312 312 312 311 312 312 314 315 316 317 317 316 315 316 317 318 320 322 323
311 312 313 313 313 312 311 311 313 313 313 313 314 318 321 322 324 326 326 326 326 325 324 325 323 319 318 317 315 315 316 317 322 321 318 319 321 322 323 324 325 324 324 324 324 325 324 324 324 323 325 323 320 318 317 322 321 313 312 312 312 313 312 312 312 311 312 312 312 313 313 311 310 311 314 315 314 316 316 317 317 316 315 316 317 319 321 322
311 312 312 313 312 311 310 311 313 312 312 312 313 317 320 322 323 326 327 326 326 324 324 324 322 318 317 317 315 316 317 317 320 321 319 318 319 322 322 323 323 324 324 323 323 324 324 325 324 324 325 323 321 320 318 318 318 316 315 317 316 313 313 314 312 312 312 312 312 312 311 310 310 312 314 315 314 315 315 316 317 316 316 316 317 319 321 322
311 312 312 312 312 311 309 311 314 313 311 311 312 315 317 320 322 325 327 326 326 325 323 323 321 318 317 317 316 316 318 316 318 321 320 318 319 320 321 320 320 322 324 324 323 323 323 324 324 324 325 323 322 322 321 319 318 318 315 317 318 314 315 314 311 312 312 312 312 311 313 313 312 312 313 314 314 314 314 316 316 316 315 316 318 320 321 322
310 310 310 311 311 311 309 310 313 313 311 311 312 313 315 317 318 322 327 326 326 325 323 323 320 317 317 317 316 317 318 317 317 320 321 320 319 319 319 319 319 319 321 323 323 323 323 323 324 324 323 322 321 322 321 317 317 320 314 313 317 317 318 313 308 310 311 312 312 311 316 320 316 312 312 313 314 314 314 315 316 316 315 315 318 319 321 322
309 308 309 309 310 311 310 309 311 312 311 312 313 313 315 316 316 319 326 326 325 324 324 322 318 317 317 317 317 317 319 318 316 319 321 322 320 318 318 318 318 318 318 320 322 323 322 323 323 323 322 321 320 320 322 319 319 322 319 316 316 318 320 314 309 309 311 311 310 312 316 319 318 313 312 312 313 314 314 314 315 315 315 315 317 318 320 320
308 307 307 308 308 309 310 309 309 312 313 313 313 313 314 315 314 316 323 327 326 324 323 320 318 317 318 318 317 317 319 319 317 319 320 322 321 319 319 319 318 318 318 319 322 323 322 323 323 322 320 320 320 322 327 326 323 323 324 324 318 315 318 314 309 309 312 312 308 312 316 316 316 312 311 311 312 313 313 314 314 314 315 315 316 317 318 319
308 307 306 306 307 308 310 309 308 311 313 313 312 311 312 313 313 315 320 326 326 323 321 319 318 318 318 319 318 318 320 320 319 319 320 321 322 320 320 320 320 320 320 321 322 322 323 323 323 322 319 320 322 325 328 326 325 323 324 326 319 314 314 313 311 308 309 311 309 311 315 317 314 309 309 311 311 313 314 314 313 314 315 315 316 316 317 318
308 307 306 305 305 306 308 310 309 310 313 313 311 311 311 312 314 315 319 323 324 321 320 318 318 318 318 319 319 319 320 319 320 321 322 322 322 321 321 322 322 322 322 322 322 322 323 323 322 322 321 321 322 325 328 326 326 324 320 321 317 313 313 313 313 309 307 310 312 312 312 315 314 309 309 310 310 312 315 315 315 315 315 315 316 315 316 317
308 307 305 305 305 305 307 309 309 310 313 314 311 310 310 311 313 314 317 322 322 320 320 318 317 319 319 318 319 320 320 320 321 323 323 323 322 321 321 322 322 322 322 322 323 323 323 320 321 324 323 322 321 323 328 327 327 325 320 319 318 314 312 311 312 310 309 311 312 313 312 313 313 311 310 310 309 311 314 315 315 315 316 316 316 316 317 317
308 307 305 305 305 305 306 307 309 311 314 315 314 311 310 312 312 312 315 322 323 321 321 320 318 320 320 318 319 321 320 320 322 323 323 323 323 323 322 322 322 322 322 323 323 322 321 320 321 325 324 322 321 323 326 325 326 324 319 318 317 315 312 310 310 310 308 311 313 313 313 312 313 313 310 310 310 310 311 313 314 315 317 318 318 317 316 317
307 306 306 305 305 306 306 306 308 310 313 316 317 316 315 315 315 314 314 318 322 322 321 320 318 319 319 319 320 321 321 321 322 322 323 323 323 324 323 323 322 322 323 323 323 320 321 323 324 325 324 321 322 322 321 319 318 317 316 316 314 313 312 310 311 310 307 310 313 312 312 312 312 313 311 309 309 309 309 311 312 314 315 316 317 316 316 316
306 306 306 305 305 306 307 306 307 309 312 315 316 318 318 316 315 315 314 316 321 322 321 319 318 318 318 319 320 320 321 322 322 322 323 323 324 323 322 322 323 323 323 321 321 320 321 326 325 323 322 321 321 319 314 314 314 314 317 316 314 313 312 311 310 310 308 309 314 313 311 312 311 311 310 308 308 309 310 310 311 312 313 314 315 315 315 315
306 305 305 305 305 306 307 306 306 308 310 313 314 316 317 315 314 315 315 318 321 321 321 319 318 319 319 320 320 320 322 321 320 321 322 322 323 322 321 322 323 322 320 320 321 321 323 326 324 321 320 319 319 316 313 315 314 317 318 317 317 314 313 313 311 311 309 309 314 314 311 312 312 311 310 307 308 310 311 311 312 312 313 313 313 314 314 314
305 305 305 305 305 306 306 306 307 306 309 313 313 314 315 313 313 315 317 318 319 320 321 319 318 319 320 320 320 319 321 321 318 319 321 322 322 321 320 321 321 320 319 321 323 324 324 324 322 320 318 318 317 316 317 318 316 318 319 318 317 313 313 315 312 311 312 310 312 312 311 312 312 312 311 308 309 310 311 312 312 312 312 313 313 313 313 313
304 304 304 304 304 304 305 306 306 306 308 311 313 314 314 313 312 313 316 316 316 316 319 319 318 319 320 321 321 320 320 321 319 318 320 322 321 320 321 321 320 320 320 322 322 322 323 322 319 318 318 318 317 317 318 319 318 316 316 318 318 314 312 312 312 311 312 312 310 310 313 314 313 315 314 311 309 308 309 310 310 311 312 313 312 313 314 313
303 303 303 303 303 303 303 305 305 306 307 309 312 313 315 316 313 312 314 314 314 314 316 319 319 319 320 321 320 319 320 320 319 319 320 321 321 320 320 320 320 321 321 321 321 322 321 318 318 319 318 317 316 316 317 319 319 316 315 316 315 313 311 310 312 312 312 315 312 311 316 318 320 320 316 314 311 309 308 307 308 311 312 312 312 313 314 314
302 302 302 302 302 302 302 303 304 305 306 307 310 312 314 316 314 313 313 314 315 314 314 318 320 320 320 321 320 319 320 318 318 320 320 321 321 320 320 318 318 321 320 320 321 321 318 315 317 319 318 317 317 316 316 318 319 318 317 313 311 311 311 311 312 311 314 318 313 310 314 318 320 319 318 316 314 313 310 306 306 310 311 311 313 315 314 314
302 302 302 302 302 302 302 303 304 304 304 306 309 311 313 315 315 313 313 315 317 313 313 316 319 320 320 320 319 320 320 318 318 319 320 321 321 320 320 318 317 319 318 319 323 321 317 315 317 319 319 318 318 317 316 317 320 320 315 311 311 311 312 313 313 312 315 316 312 311 312 314 314 315 316 314 313 315 313 310 308 308 311 312 313 315 315 315
302 302 302 301 302 302 302 303 304 304 304 306 308 310 313 315 315 314 313 316 316 312 312 315 316 318 319 320 320 319 319 319 319 319 318 320 319 318 319 317 318 319 317 320 324 318 314 316 317 319 319 318 319 319 316 316 318 317 312 310 311 312 313 316 315 314 314 313 313 313 312 313 315 318 316 311 313 316 315 315 312 308 311 313 314 316 316 316
302 302 302 302 302 302 303 303 305 306 306 305 307 310 312 315 316 313 314 316 313 310 313 315 316 317 318 319 319 317 317 318 318 318 317 316 316 316 317 316 316 317 315 317 322 317 313 315 315 317 319 318 320 318 314 316 316 311 310 311 313 315 315 316 317 315 312 311 314 315 312 313 316 321 319 312 313 315 315 317 313 309 313 314 314 316 316 316
302 302 302 302 302 303 303 303 303 305 306 306 308 309 312 315 315 315 317 316 313 311 313 314 315 317 318 318 317 317 317 317 316 315 314 313 313 315 315 315 314 316 315 315 317 315 312 313 313 315 317 316 316 314 311 313 312 308 312 315 316 319 319 320 321 315 312 315 314 313 313 313 314 319 318 314 316 316 315 316 313 309 312 314 315 316 316 316
302 302 303 302 302 302 303 304 303 302 304 309 310 309 312 315 315 318 318 314 313 312 312 314 315 317 318 318 318 317 316 315 314 313 313 313 315 315 315 316 315 316 317 316 314 311 311 313 314 313 313 312 312 311 311 311 309 311 319 319 317 321 321 323 323 315 314 318 312 310 312 312 313 316 316 315 317 316 315 316 316 313 313 315 317 316 315 315
302 302 303 303 302 303 303 304 304 301 303 309 311 311 313 315 315 319 317 313 315 314 311 314 316 316 318 318 318 317 316 315 313 313 313 315 316 316 317 318 317 319 320 317 314 313 313 313 312 311 311 313 313 313 314 314 314 318 321 318 318 320 320 321 320 316 316 316 310 309 311 312 313 315 315 315 315 313 311 312 314 312 313 317 317 315 314 314
301 302 303 303 303 303 303 304 304 303 302 306 310 312 313 315 317 318 315 313 316 314 311 313 315 316 318 318 318 316 316 314 313 313 313 315 316 316 317 316 317 321 320 316 315 315 315 313 312 311 311 312 314 314 314 315 316 317 316 316 319 320 320 320 318 317 318 317 311 309 310 313 316 315 314 314 313 313 310 309 312 311 313 316 315 315 314 313
298 300 302 303 303 303 303 303 304 305 303 304 309 313 312 314 317 317 314 312 313 312 311 314 315 316 318 318 317 316 316 314 312 313 314 315 317 316 315 315 316 319 317 315 316 316 318 317 313 313 312 313 314 315 314 314 314 314 313 316 319 318 320 321 319 319 320 317 312 309 313 318 320 317 313 310 309 310 310 311 311 311 313 314 314 314 313 313
297 298 300 302 303 304 303 303 303 305 305 306 310 313 313 315 316 316 314 311 311 311 312 314 315 316 317 316 316 316 315 314 312 313 314 315 317 316 315 315 315 316 317 318 318 317 319 318 312 310 311 312 314 313 313 314 314 313 313 316 317 319 320 319 316 316 316 316 313 311 315 319 318 315 311 306 307 308 308 309 309 310 313 313 313 314 314 314
297 298 299 300 303 304 303 304 304 304 306 308 310 311 313 315 315 315 314 310 311 312 313 314 314 316 317 316 316 316 314 314 313 313 313 315 317 316 316 315 313 315 317 319 318 317 319 316 310 309 310 310 312 312 311 315 316 313 312 314 314 316 318 317 314 311 311 315 315 312 314 316 315 315 313 312 313 311 309 308 307 309 311 310 311 314 315 314
299 299 299 299 301 303 303 304 304 304 305 308 309 310 312 313 310 311 312 311 312 312 314 315 314 315 317 316 316 316 314 314 314 314 314 315 316 315 315 315 312 313 316 317 317 317 318 315 309 310 312 310 310 311 310 312 314 312 313 314 312 313 316 316 317 314 311 315 316 314 313 314 315 317 316 314 315 314 314 312 308 308 309 308 310 314 314 314
299 299 300 300 301 303 304 304 304 304 305 307 309 309 310 310 308 309 311 312 313 313 315 317 315 314 316 317 316 315 314 315 314 315 314 315 316 315 314 314 312 312 313 314 318 317 317 317 310 309 312 309 308 312 312 310 310 311 312 313 313 316 316 315 316 317 315 315 318 317 312 311 314 318 317 313 314 317 316 314 312 310 309 309 311 313 313 312
299 300 301 301 300 302 304 304 303 305 306 307 308 309 309 309 308 308 311 312 313 314 316 316 315 314 315 317 317 314 315 316 315 315 315 315 316 313 313 314 312 311 310 312 317 317 317 320 314 309 311 310 309 312 314 313 309 308 310 311 313 316 315 316 316 318 318 316 319 320 316 314 315 316 317 315 315 316 314 315 315 310 308 309 311 312 312 312
300 301 302 302 301 302 303 304 304 305 307 307 308 309 309 309 308 308 309 312 313 315 316 315 315 315 315 316 316 315 316 316 314 316 316 315 315 313 312 313 312 311 309 311 316 316 314 317 315 310 309 311 312 312 313 314 310 309 311 311 312 312 313 317 316 315 317 317 319 319 318 321 320 314 314 314 316 318 316 317 315 308 307 309 310 311 311 312
300 302 303 302 302 303 304 304 305 306 307 308 309 309 307 308 309 309 309 312 313 313 315 315 315 316 316 317 316 315 316 315 314 316 316 314 314 313 312 311 311 310 310 312 315 316 316 315 313 311 310 311 313 312 312 313 311 311 311 312 313 312 313 316 317 314 313 315 319 317 314 320 321 315 312 312 314 314 310 310 309 306 307 309 310 311 311 311
301 302 303 303 303 304 304 305 306 306 307 308 309 309 308 308 309 310 310 312 311 310 312 314 315 315 316 317 316 316 316 315 314 315 315 314 314 314 312 310 309 310 312 314 314 313 315 314 311 311 312 311 311 309 307 310 312 313 312 313 314 313 312 315 318 315 311 312 315 314 312 315 318 318 313 308 307 306 304 303 304 307 310 310 310 311 310 311
302 302 303 304 304 304 305 306 306 306 307 308 309 309 308 308 308 310 311 311 311 311 312 313 314 315 316 316 316 316 316 314 314 315 314 314 313 311 309 309 310 310 312 315 313 311 313 313 312 312 312 311 312 309 306 308 312 313 312 313 313 313 313 315 317 315 313 313 312 312 313 314 318 321 310 300 300 303 304 305 305 307 310 310 310 310 310 310
302 303 304 306 305 305 306 307 307 307 308 309 310 309 308 307 308 309 311 312 312 313 315 314 314 314 315 315 315 316 316 315 315 314 314 315 312 308 308 309 311 311 311 313 313 313 316 314 312 313 314 314 315 313 310 311 311 312 313 312 312 314 313 313 313 312 313 315 313 313 315 316 320 322 311 303 304 305 305 307 307 308 310 310 310 310 310 310
302 303 306 307 306 305 306 307 307 308 308 309 309 309 308 308 308 308 310 312 312 313 315 314 314 314 314 314 315 315 315 316 315 313 313 314 310 306 307 310 311 310 311 312 311 315 318 315 313 314 315 316 316 315 314 313 311 313 316 313 312 314 312 312 313 312 313 315 313 312 315 318 320 318 313 312 313 309 306 307 308 309 309 310 310 310 310 310
302 304 307 307 306 306 306 306 307 308 308 309 309 308 308 309 308 308 310 311 310 311 314 314 313 313 313 314 315 314 314 314 315 313 312 313 310 306 306 310 311 310 311 311 311 315 317 313 313 315 315 315 317 315 315 314 312 313 315 312 312 312 312 314 315 314 313 314 313 312 313 315 317 314 313 317 317 316 312 306 306 309 308 309 310 310 311 311
302 305 307 308 307 307 307 307 307 307 308 309 309 308 308 309 310 309 310 311 309 310 312 312 312 313 314 314 315 315 314 313 314 313 312 312 310 307 307 309 310 310 311 310 311 315 317 314 314 316 315 316 319 317 314 313 313 313 313 312 313 312 312 314 315 314 314 314 314 313 311 312 312 313 317 321 318 317 312 304 305 309 308 309 310 310 311 311
303 305 306 308 309 308 307 307 308 308 309 309 309 309 309 309 310 310 311 309 307 309 311 312 313 313 314 314 315 315 314 313 313 313 311 311 310 308 308 309 309 310 311 311 310 312 315 315 314 314 314 316 318 318 315 313 313 313 313 312 312 312 312 313 313 313 315 315 314 315 313 312 311 312 315 317 312 308 307 306 308 309 309 310 310 310 311 311
303 305 306 307 309 309 307 307 308 308 309 309 309 309 309 309 310 311 311 308 307 309 312 312 313 313 314 314 315 315 314 313 313 312 310 310 310 309 308 309 309 309 310 312 311 310 313 315 313 313 314 313 314 315 315 315 314 314 313 312 311 311 311 312 313 313 313 314 314 315 316 313 312 313 313 312 309 306 306 307 308 309 310 310 310 311 311 311
303 305 306 307 308 308 307 307 308 309 309 309 309 309 309 310 310 310 310 310 309 310 312 313 313 313 313 313 314 314 314 313 314 312 310 310 310 309 309 310 310 309 309 311 311 310 313 314 312 313 314 312 312 313 314 314 316 315 314 312 311 311 311 312 313 313 313 314 312 314 315 313 311 310 309 309 309 308 307 307 308 310 310 310 310 311 311 312
303 306 308 307 309 309 307 307 308 309 309 310 309 310 310 309 310 310 310 310 310 311 312 312 313 312 312 313 314 314 313 313 314 311 309 310 309 309 310 310 310 310 310 312 311 313 316 314 311 313 315 311 310 313 314 313 313 314 315 314 312 311 311 311 312 312 313 314 313 313 313 313 311 309 308 309 309 308 307 308 309 309 309 309 311 311 311 312
303 306 308 309 310 309 307 308 309 308 309 310 309 310 310 310 309 310 311 310 309 310 311 312 313 312 312 313 313 313 312 312 312 310 309 309 309 308 309 308 308 310 312 312 313 316 318 315 312 314 315 310 309 313 316 314 313 314 314 313 311 311 312 311 312 312 312 312 314 313 313 314 314 311 310 311 310 309 309 310 311 311 309 310 311 312 312 312
Wind_Speed
38 37 37 36 38 44 43 36 30 28 31 37 41 41 42 44 44 43 40 39 37 35 33 33 33 34 36 34 30 27 25 25 25 27 30 32 28 25 28 26 24 27 27 25 25 22 14 16 20 19 10 6 7 9 10 9 9 3 2 3 1 2 2 4 6 6 3 2 2 8 13 10 5 9 9 4 8 8 9 13 11 13 14 10 5 7 21 25
37 37 38 35 36 41 43 41 36 31 30 34 40 42 41 45 46 43 42 40 38 36 34 34 35 36 37 35 33 29 26 26 26 28 30 31 30 25 26 27 25 26 27 24 26 25 18 16 18 18 10 1 3 6 8 10 10 4 2 2 2 3 3 2 4 5 3 4 2 7 11 11 7 10 13 4 6 8 7 11 12 13 15 13 7 9 22 25
36 36 37 34 34 38 41 42 40 35 31 32 38 42 43 45 45 43 43 41 39 37 35 35 37 38 37 36 36 31 27 26 26 29 31 30 30 28 26 27 25 24 26 23 22 25 21 19 21 17 8 2 3 6 8 11 9 4 3 1 2 3 3 4 3 5 5 6 5 3 8 11 9 10 12 7 4 6 8 12 14 15 18 18 11 11 22 26
35 35 35 32 32 34 38 41 43 39 34 31 32 37 43 43 43 45 45 41 40 39 37 36 38 39 37 36 36 34 29 20 23 32 32 31 30 31 29 27 26 23 23 22 19 22 21 20 23 17 7 2 4 7 6 10 8 2 2 2 2 2 2 6 9 9 7 7 6 2 5 8 11 11 12 9 4 4 14 20 21 19 19 20 17 14 22 27
33 33 33 32 32 33 37 41 43 41 35 34 30 32 40 41 42 46 44 42 41 40 39 38 39 40 38 36 35 36 29 9 17 34 33 32 30 29 31 27 25 22 21 21 18 19 19 18 21 17 7 3 1 4 3 7 9 3 1 1 3 5 3 9 12 12 11 8 6 2 4 6 10 12 15 14 7 8 15 20 21 20 17 17 19 17 22 28
31 31 32 32 32 33 38 41 41 39 33 35 32 29 37 40 42 44 43 43 42 41 40 39 41 41 38 37 35 36 30 5 7 32 34 33 31 26 30 28 23 21 20 21 18 18 17 17 20 18 9 4 2 1 1 1 7 3 1 3 7 8 6 11 15 15 14 9 6 5 5 7 9 10 15 20 18 15 12 11 12 16 17 16 17 19 21 26
29 30 30 30 32 34 38 39 40 38 31 31 30 27 33 40 41 42 44 43 43 43 41 41 42 42 40 37 34 34 34 12 2 28 36 33 32 27 30 29 24 19 18 21 19 19 18 19 22 21 12 3 3 4 2 5 5 3 1 4 9 12 12 15 19 17 14 11 10 8 6 8 11 8 9 21 28 21 12 7 5 9 15 17 17 20 21 22
27 28 29 29 31 33 37 40 42 40 33 29 27 25 30 38 40 40 44 44 44 43 41 43 42 44 42 38 36 28 33 21 0 22 38 32 32 28 28 29 24 18 16 18 19 20 18 19 23 21 11 4 5 6 2 4 5 2 2 7 11 15 16 19 20 16 12 12 12 9 9 10 13 9 8 20 26 23 19 13 6 6 12 18 18 19 21 22
24 25 27 26 28 31 36 40 42 42 40 37 31 26 28 35 38 42 45 44 44 44 42 44 43 45 41 40 38 22 31 30 3 19 39 33 32 28 27 28 25 20 16 14 16 18 18 18 22 21 13 8 10 6 4 5 2 1 2 9 13 15 18 19 16 12 10 10 8 7 10 9 9 8 11 21 22 20 23 19 13 9 10 17 19 20 22 23
23 23 25 24 25 29 34 38 37 38 43 44 38 28 26 32 34 41 49 46 45 46 44 45 45 45 40 39 33 15 31 39 9 16 38 36 33 29 27 27 25 22 17 15 14 15 17 18 22 21 14 12 12 7 7 6 3 0 7 13 13 12 16 17 14 13 10 8 8 7 6 5 5 5 8 14 15 18 22 22 19 13 11 15 19 20 21 23
23 23 23 22 22 27 35 37 35 36 39 43 43 31 25 29 29 39 53 52 48 47 45 46 46 45 41 38 31 14 29 44 18 12 30 36 34 31 30 27 25 24 20 18 15 13 13 15 21 18 8 9 11 7 6 6 4 2 9 12 13 12 16 16 13 13 8 5 8 9 3 2 4 4 8 8 8 14 19 21 20 17 14 14 18 20 22 24
21 22 23 22 21 25 35 38 36 36 37 39 44 37 27 26 26 36 57 58 50 49 46 47 45 44 41 34 31 22 28 43 29 13 22 32 34 32 30 26 24 24 22 20 16 14 11 13 19 14 7 11 10 4 6 7 4 2 6 5 10 11 12 12 9 9 6 3 5 7 3 3 4 8 12 9 8 11 15 19 19 18 15 14 18 21 22 24
21 21 22 22 21 24 32 38 37 35 36 37 42 43 35 29 21 27 54 60 51 50 47 47 47 43 39 28 27 27 27 40 36 19 19 28 33 33 30 28 25 23 21 19 16 13 10 10 13 12 13 14 10 5 5 5 4 1 2 1 5 7 7 6 4 5 6 4 6 8 3 5 7 14 13 9 11 12 13 17 19 18 16 16 18 21 22 23
21 20 21 21 20 22 28 37 39 35 36 37 40 44 41 34 22 21 45 57 50 50 48 47 47 44 37 24 25 28 26 35 37 26 22 24 31 33 30 30 26 24 21 17 16 14 10 10 11 13 14 11 10 8 5 4 2 1 1 0 1 2 4 5 4 2 4 3 9 8 3 6 7 13 13 11 12 13 15 17 19 20 18 18 20 21 22 23
20 18 19 20 19 20 25 33 37 34 34 37 39 43 43 39 30 24 36 55 51 49 49 47 46 43 31 17 23 30 25 31 35 30 27 23 27 31 30 30 27 23 21 18 18 16 12 13 13 14 13 10 11 8 3 3 3 2 1 2 1 1 4 8 6 6 5 2 7 7 2 6 8 10 9 14 15 14 16 18 18 21 20 20 22 23 23 22
19 18 19 19 19 19 24 31 33 32 31 33 37 44 47 41 33 25 27 51 55 49 50 47 45 40 24 12 20 30 29 32 33 30 30 26 26 30 29 28 26 23 21 18 19 18 16 15 12 13 13 9 7 5 3 1 2 3 1 2 1 1 2 6 6 6 5 2 5 5 2 4 4 4 3 9 17 16 17 19 19 21 21 22 23 24 24 24
19 19 19 18 19 18 23 30 32 31 29 31 33 40 48 40 31 25 21 41 52 52 54 50 50 38 16 12 24 34 35 34 33 30 29 27 27 32 31 27 27 25 24 22 20 20 18 15 11 8 7 5 4 4 3 3 2 2 1 1 2 2 2 4 4 2 1 2 3 5 4 6 6 5 3 1 10 15 18 18 19 20 22 23 24 25 26 26
19 19 19 19 18 16 21 28 31 31 28 31 31 35 46 41 32 27 25 39 51 50 47 46 48 26 8 21 34 39 40 37 36 32 30 28 27 31 33 30 29 29 28 23 19 18 15 10 8 4 3 3 4 5 5 4 4 4 3 3 3 3 3 4 5 4 3 1 3 4 6 10 11 12 10 5 5 12 17 17 17 20 22 23 25 27 27 28
19 19 19 19 18 16 18 24 30 29 26 29 30 32 38 37 34 33 33 39 50 38 21 34 43 18 12 35 42 41 41 40 37 32 32 31 29 31 31 30 31 32 27 16 10 14 13 7 4 4 4 5 6 7 8 6 7 8 6 5 3 3 4 4 5 4 2 2 5 5 7 10 11 13 13 9 8 10 13 16 18 20 22 23 25 28 28 29
18 18 19 18 18 16 16 21 27 27 24 24 26 26 25 23 17 20 31 31 40 40 23 45 57 25 20 40 42 42 40 39 38 35 34 33 34 33 30 31 29 23 17 10 7 12 13 6 4 6 7 9 10 10 8 7 9 9 6 4 4 2 3 3 5 5 2 1 5 5 7 10 11 11 10 8 8 9 12 16 20 22 23 24 26 28 29 30
18 18 19 18 17 17 15 18 23 25 23 23 26 25 22 24 14 11 24 28 30 39 30 54 59 19 21 44 46 48 41 33 37 38 34 34 35 29 26 28 20 9 9 12 11 9 9 8 7 8 11 13 12 9 9 9 9 9 6 4 2 1 3 4 6 5 2 1 5 3 5 10 11 12 10 7 7 11 17 18 20 23 24 26 28 29 31 30
19 18 18 18 17 17 15 16 20 23 21 20 26 26 22 31 26 16 17 14 21 30 28 49 47 18 29 45 47 51 40 24 28 36 37 37 34 23 19 19 11 6 9 13 10 6 5 6 7 10 12 11 8 9 10 9 8 7 5 4 2 1 2 5 4 4 3 1 5 4 3 9 11 12 11 11 12 17 22 23 23 23 22 25 28 30 32 31
18 18 17 17 16 16 16 16 18 22 22 20 26 30 26 31 33 23 11 4 9 19 32 47 38 29 39 42 46 53 38 23 25 35 40 38 31 23 20 14 8 9 10 10 9 7 4 4 10 14 13 11 8 9 9 6 5 4 5 5 3 2 2 2 2 4 2 2 3 5 5 8 9 9 9 14 21 22 23 23 24 24 22 25 26 26 29 31
18 18 17 16 16 17 17 16 18 22 25 25 27 32 29 27 35 35 15 3 7 6 29 46 39 38 42 41 51 52 37 31 33 39 44 39 30 24 19 14 12 9 7 10 10 7 3 6 16 16 12 13 10 9 9 6 4 2 4 5 4 5 4 3 3 6 4 1 2 4 6 7 7 8 8 10 14 17 20 21 23 25 26 27 25 24 25 28
19 19 17 16 17 18 17 16 19 24 26 27 28 32 29 19 28 40 17 5 5 5 13 35 34 34 41 43 46 44 33 27 31 42 46 41 36 25 16 15 12 8 9 11 9 5 2 8 17 14 9 12 11 9 10 8 5 1 3 5 6 6 5 3 4 5 4 3 1 0 4 6 4 6 8 6 4 9 13 15 21 27 28 27 26 26 26 25
17 18 17 16 16 17 18 17 20 24 25 28 30 32 30 17 18 33 17 4 4 4 3 22 25 27 37 39 42 41 24 11 21 41 41 38 39 28 17 11 5 7 13 10 5 2 2 7 11 11 11 12 10 8 9 9 6 1 5 8 8 7 5 3 4 2 0 4 2 3 4 6 6 6 8 4 4 8 8 8 17 25 26 27 29 30 29 27
15 16 17 16 16 17 18 14 17 23 24 27 30 31 31 22 16 23 13 3 4 3 3 11 16 27 35 40 48 34 13 15 25 35 37 34 36 28 17 10 5 9 11 8 3 1 5 9 7 9 11 9 9 7 8 10 7 2 6 12 12 10 8 6 2 1 2 4 4 3 4 4 7 7 4 1 4 8 7 7 13 20 25 28 30 31 32 30
12 14 15 16 16 17 18 14 15 20 22 24 26 27 29 26 20 17 8 4 3 5 4 4 8 27 38 46 49 25 18 34 24 22 36 34 29 22 12 9 11 12 10 8 6 1 6 12 10 11 10 7 8 7 10 12 5 2 5 9 11 9 7 6 4 3 2 2 6 5 3 2 7 6 3 1 4 8 9 8 10 18 26 30 32 33 32 33
11 12 14 15 14 15 17 18 17 12 14 21 21 20 24 25 19 11 3 4 3 4 3 5 7 22 36 38 33 22 27 30 15 19 34 25 19 14 8 12 17 13 6 5 5 2 2 11 15 13 9 7 4 5 12 11 3 3 6 6 5 5 4 5 4 2 1 2 9 6 4 4 7 4 1 2 4 7 8 7 9 17 24 29 32 34 33 34
11 12 13 14 14 15 17 22 23 16 13 18 19 17 21 21 13 5 5 3 3 2 4 8 8 16 29 23 12 19 22 13 17 29 24 13 14 12 14 20 19 11 5 7 5 3 1 7 11 7 4 7 7 6 9 9 7 8 7 7 6 5 4 3 2 3 2 5 7 3 5 4 5 4 5 5 5 7 7 6 8 15 20 24 27 30 31 33
11 12 13 15 16 17 20 24 27 24 19 15 16 19 19 14 6 4 7 3 3 3 3 6 9 12 22 18 9 17 17 10 19 26 14 8 12 13 16 15 10 7 4 5 4 1 4 6 5 2 7 12 10 6 4 4 8 8 4 5 5 3 3 3 3 2 2 6 3 3 2 5 6 6 3 5 6 6 7 7 8 13 21 25 25 25 26 27
10 12 14 16 18 18 21 22 21 25 25 15 15 22 15 6 5 4 4 5 4 5 3 6 11 10 14 16 12 16 17 12 17 19 14 10 9 11 11 8 7 6 5 5 4 2 3 2 1 3 9 13 11 6 3 4 4 5 4 6 4 2 2 0 1 0 4 5 2 2 2 4 9 7 5 9 7 8 10 12 14 16 22 27 26 23 20 21
8 10 13 16 19 20 21 20 17 19 24 20 18 20 10 4 6 4 3 5 2 3 6 8 14 15 14 12 10 14 15 12 16 17 14 12 11 8 4 5 8 4 4 8 5 4 2 3 2 3 4 10 12 8 5 2 3 5 6 7 5 3 2 4 3 1 5 5 3 3 2 4 7 4 9 13 11 14 17 18 21 21 22 24 24 21 19 20
8 11 13 16 19 20 20 20 18 13 17 23 19 12 8 6 3 4 4 5 1 3 6 9 16 19 15 11 12 14 11 9 15 14 11 11 11 7 4 8 9 3 7 9 3 6 6 1 6 7 5 10 12 8 9 9 7 6 5 5 6 6 4 5 5 4 4 3 3 2 2 4 4 2 8 11 12 17 18 20 21 22 23 24 24 23 22 22
11 12 13 16 19 20 18 21 22 14 13 20 13 5 8 8 3 2 4 4 3 5 6 10 17 17 11 8 11 11 6 8 17 13 10 12 12 11 10 12 12 6 10 10 3 6 9 3 4 5 8 14 12 6 8 10 5 2 1 2 4 5 3 3 3 3 2 0 2 3 3 5 3 5 9 8 10 14 18 20 20 23 25 24 26 28 27 26
12 12 15 18 20 21 20 22 23 20 17 16 8 6 7 5 2 3 5 5 6 11 12 9 9 10 8 5 7 8 7 7 16 12 9 11 11 13 12 9 11 8 10 10 3 4 7 1 1 3 6 14 13 9 11 11 6 1 2 4 3 3 4 4 2 1 4 2 3 3 6 5 3 8 11 7 7 9 11 14 18 26 27 23 25 30 30 30
13 12 16 19 22 23 24 23 23 24 21 11 6 8 3 1 2 2 5 9 10 14 16 9 4 4 6 4 6 12 12 9 12 9 7 8 7 12 12 10 13 14 12 9 2 3 6 3 1 2 5 10 12 14 12 9 8 6 6 7 4 2 2 3 1 1 2 4 4 2 7 5 2 6 6 4 8 9 8 9 14 22 24 22 28 31 31 30
13 13 16 19 22 24 26 24 23 25 19 7 8 11 3 0 3 3 5 11 13 13 12 9 4 3 6 7 8 16 18 13 11 9 9 8 6 12 16 12 14 17 14 7 3 3 6 4 2 0 4 4 4 10 7 4 4 4 5 9 7 2 3 3 3 2 3 4 3 3 4 4 5 6 4 3 9 10 10 9 8 13 19 24 31 32 29 27
12 11 15 18 19 25 27 24 25 25 15 5 9 10 3 2 5 7 10 13 14 12 10 7 4 3 6 9 13 18 18 16 15 12 11 10 6 13 21 13 10 18 14 5 4 4 5 5 1 1 2 3 2 5 7 5 2 2 3 7 3 0 3 4 3 2 3 4 3 3 3 3 7 6 4 6 8 9 10 9 6 11 17 20 22 23 23 23
11 8 13 17 17 24 28 26 26 20 9 7 10 6 2 3 6 11 17 15 11 8 7 7 7 7 8 9 12 15 12 13 17 11 8 10 4 6 17 13 10 16 13 5 5 5 3 4 4 1 1 5 4 5 8 10 7 4 6 8 4 1 2 1 2 2 3 4 3 2 3 6 5 4 8 10 9 10 10 9 8 11 12 10 11 13 14 16
13 6 10 17 17 24 30 25 17 11 6 8 9 4 2 3 7 13 21 19 8 1 3 7 9 9 10 12 12 12 10 10 14 9 3 9 6 2 13 16 14 16 12 5 5 5 2 3 6 5 3 4 3 3 5 8 9 7 7 8 9 6 3 3 5 3 3 3 4 2 5 8 5 4 7 10 8 6 4 5 8 9 8 7 7 8 10 12
13 7 11 20 21 29 33 18 8 8 8 9 8 5 6 4 6 14 20 17 6 3 2 4 5 6 9 12 13 12 10 10 13 10 3 6 7 3 11 22 24 21 13 6 5 5 4 5 5 4 4 4 3 4 2 4 6 5 3 6 8 7 6 6 6 3 2 2 2 3 4 7 4 5 6 7 8 9 9 8 11 15 15 14 13 13 14 14
15 13 17 23 27 37 32 9 7 11 7 9 11 8 9 6 5 10 15 14 5 1 4 3 3 6 6 7 12 13 10 8 10 7 3 3 2 3 15 28 30 21 10 7 7 6 5 5 5 5 2 1 3 4 2 1 3 6 6 5 6 6 8 5 2 3 3 4 3 2 5 6 3 2 5 8 10 13 17 16 16 21 22 20 17 16 16 15
17 18 21 25 33 41 27 6 9 12 7 9 12 10 9 6 7 10 12 13 9 4 6 6 5 6 4 6 12 15 12 7 6 4 3 3 2 8 25 35 30 18 8 8 11 7 4 3 5 7 4 1 2 1 2 2 4 6 5 5 5 6 5 3 1 2 1 6 7 5 8 9 4 2 4 8 7 9 16 15 13 17 19 17 14 12 13 13
12 14 21 34 47 45 26 14 15 12 9 11 10 12 11 4 10 17 14 10 9 8 7 7 6 6 5 8 8 9 8 4 5 5 3 4 2 6 25 38 32 19 10 13 16 11 6 5 6 8 7 7 6 6 6 5 4 2 3 8 11 10 10 6 2 3 6 8 8 7 11 8 4 2 4 7 6 7 9 7 5 10 12 12 11 9 8 8
7 7 13 27 43 41 27 26 24 13 12 14 8 11 14 7 9 18 19 9 4 4 5 4 7 8 6 10 9 7 6 2 4 7 4 6 3 1 18 35 30 20 17 21 22 12 5 4 7 10 12 12 9 6 6 10 9 9 11 14 15 12 12 7 4 7 11 5 6 13 14 8 7 5 5 6 5 6 7 6 6 6 8 10 10 8 5 5
8 7 8 13 21 22 18 20 20 12 13 17 9 8 13 13 9 12 18 9 6 3 4 3 9 11 10 16 12 10 9 4 5 10 7 6 4 2 16 26 22 23 24 23 22 12 5 6 11 13 12 8 5 6 9 14 15 15 14 15 15 14 14 11 11 15 8 4 8 15 12 12 12 7 6 9 5 5 7 7 8 9 10 11 10 8 6 6
13 10 18 22 15 9 12 16 15 13 16 17 10 9 15 17 13 11 13 5 5 6 4 3 11 14 16 19 13 10 12 4 4 10 7 7 6 6 12 12 13 26 26 18 19 11 4 9 14 13 10 3 4 7 11 12 10 11 14 16 16 17 18 17 21 20 9 7 14 9 9 15 13 6 9 12 7 5 4 5 10 13 14 14 12 11 9 8
17 13 22 29 16 10 17 21 18 16 17 15 9 10 15 16 16 13 10 7 4 8 7 8 14 16 16 17 12 10 13 9 9 12 10 12 12 10 11 6 8 20 19 11 12 6 2 6 7 9 7 4 5 3 8 10 6 5 11 14 14 18 22 23 25 22 12 13 17 6 6 13 8 6 11 11 10 12 10 12 15 16 17 17 14 14 12 10
22 15 18 17 9 13 21 21 20 16 15 15 9 8 13 16 17 13 10 13 12 10 12 14 18 19 18 18 16 16 21 21 18 16 15 15 12 10 10 5 4 10 10 7 6 1 2 2 2 6 6 5 6 4 4 7 8 7 9 11 13 18 20 21 22 17 12 18 21 10 8 14 9 9 12 13 15 15 13 17 23 24 24 20 17 19 18 15
35 31 30 18 5 13 18 14 16 15 12 13 12 10 13 16 18 14 9 14 16 14 17 20 20 18 16 19 21 20 20 15 10 14 18 16 14 12 8 5 9 11 7 5 4 2 4 2 2 6 6 1 2 5 6 5 5 4 8 15 18 17 16 17 17 15 16 20 19 11 12 15 10 10 11 15 17 15 15 20 25 26 24 19 21 26 27 25
39 37 40 28 11 13 16 12 15 16 12 13 14 13 15 16 18 15 9 10 11 9 11 15 17 15 14 21 23 17 14 13 14 20 23 18 16 14 12 16 21 17 8 5 3 2 4 4 2 5 6 2 2 4 7 7 5 3 11 17 20 17 15 15 15 17 20 18 13 12 15 10 5 8 10 11 11 14 20 25 29 31 26 21 24 29 30 30
Wind_Direction
223 222 222 224 221 218 224 229 227 228 223 217 215 215 215 215 214 212 211 209 206 203 204 203 198 194 194 194 193 195 194 192 192 193 196 198 196 196 195 191 192 196 197 201 201 201 185 156 175 181 155 101 77 49 40 32 28 40 107 89 160 174 190 185 183 196 173 324 245 191 187 176 183 190 186 197 203 213 213 207 210 210 213 204 194 174 174 175
220 219 219 223 223 218 224 229 226 227 225 217 215 213 213 216 214 211 210 208 207 205 203 202 197 194 194 194 192 192 192 191 191 193 196 198 199 200 197 193 195 198 197 200 204 207 195 172 180 180 173 188 44 40 34 30 31 49 99 104 200 202 233 225 202 211 193 337 303 190 192 194 201 185 183 195 202 202 206 211 213 215 216 207 195 173 176 179
217 216 215 219 222 219 223 227 225 225 226 223 218 212 211 215 214 213 212 207 206 205 204 201 196 193 193 194 193 191 189 189 194 196 195 197 200 201 196 194 197 200 199 198 199 204 199 185 193 192 179 216 355 9 25 31 32 48 64 111 219 229 278 323 316 289 269 296 324 201 197 206 213 190 187 198 187 195 214 215 211 216 218 209 197 177 180 183
213 212 213 215 217 217 218 221 225 225 225 226 223 215 211 212 214 214 211 206 205 204 204 201 195 192 193 193 193 193 190 193 206 200 193 195 198 200 197 191 192 199 201 199 197 201 201 192 195 196 170 124 346 345 16 31 17 353 75 160 256 349 326 342 351 341 318 290 306 259 192 216 217 199 195 186 155 226 234 227 222 226 224 211 204 187 183 188
209 209 210 211 212 212 212 214 221 224 223 224 224 217 212 212 214 212 208 204 204 204 204 200 194 191 192 193 192 194 190 193 220 200 189 191 191 193 195 189 186 191 195 195 195 197 200 196 194 188 157 108 12 351 23 32 11 319 198 100 22 27 344 331 344 343 334 314 291 227 187 224 211 205 206 191 188 232 237 238 236 238 236 222 213 196 187 193
206 206 208 210 209 208 207 205 211 220 222 222 221 217 212 213 213 208 206 205 203 202 203 199 193 191 191 193 193 194 190 168 214 196 188 185 185 186 189 187 182 185 190 189 189 192 190 183 182 174 145 104 132 111 168 349 353 319 260 32 21 9 330 324 334 327 322 310 276 244 230 224 201 215 218 206 217 230 238 252 251 244 237 230 220 203 194 196
205 202 206 208 207 204 203 199 203 212 218 218 218 216 212 213 214 208 203 205 203 200 202 197 192 191 191 192 193 195 197 195 176 190 186 183 184 183 183 184 180 181 190 186 180 183 182 173 171 164 152 127 154 152 176 243 284 269 263 352 349 343 327 323 327 319 310 290 272 264 250 226 208 217 225 221 228 229 233 250 257 247 230 225 221 212 208 205
202 199 204 208 207 204 203 201 201 206 213 218 222 219 211 208 214 214 205 204 204 199 199 196 192 192 191 190 189 193 202 205 290 186 185 181 181 179 176 177 172 169 177 185 183 181 180 177 173 167 159 141 155 147 141 240 255 219 267 334 334 333 329 327 326 319 310 288 274 256 244 241 222 216 232 235 234 229 229 235 247 250 225 222 222 217 214 209
202 198 203 208 208 204 203 203 203 207 211 218 228 224 212 208 212 216 209 203 202 200 197 193 191 191 192 190 184 190 204 199 162 182 186 184 183 181 177 174 170 168 163 169 182 185 181 177 177 179 181 165 154 133 134 200 222 142 308 325 322 326 331 329 324 319 313 289 267 236 246 255 227 221 252 249 242 234 231 232 240 250 233 225 224 222 217 213
202 197 203 207 206 203 202 202 202 207 210 217 228 227 217 216 215 216 210 202 200 200 195 192 191 188 189 187 180 191 200 192 176 179 188 189 188 186 183 177 176 177 169 160 166 179 183 180 181 184 186 170 159 139 138 182 215 328 338 321 305 319 329 323 312 300 296 284 252 219 248 265 201 197 253 251 239 232 230 230 235 243 245 232 225 223 220 217
199 198 204 206 205 201 201 201 198 202 208 214 223 226 220 217 219 219 212 205 202 200 195 192 191 186 186 185 182 191 191 189 189 174 184 191 192 191 188 185 186 185 177 167 162 166 173 176 175 173 173 166 160 154 169 195 214 319 347 317 295 319 326 314 301 284 271 270 243 213 242 288 164 203 240 239 228 223 223 226 230 234 242 235 223 221 219 220
197 198 202 205 205 200 199 199 195 199 206 211 218 223 227 223 226 221 208 203 202 199 195 192 190 186 183 186 192 191 183 188 192 178 178 189 193 194 194 194 198 196 186 177 168 162 162 164 169 164 145 157 151 141 208 211 208 341 9 317 300 328 326 310 294 261 222 230 227 188 252 280 193 228 236 230 228 222 217 220 224 228 234 229 220 219 220 221
196 197 200 204 204 201 199 198 196 198 203 210 217 221 231 231 235 223 200 197 199 197 194 191 189 186 180 185 197 194 183 186 193 188 176 186 193 195 198 201 204 206 201 193 177 163 162 168 178 164 141 149 145 124 159 173 180 257 48 35 316 328 313 310 306 234 192 201 185 162 254 274 233 237 232 224 227 222 218 218 220 223 227 224 219 218 221 222
195 198 200 203 204 202 199 198 198 199 201 207 213 217 228 229 234 230 199 193 195 194 193 189 186 182 180 184 191 194 190 187 194 194 182 185 190 192 197 200 202 205 206 204 191 175 166 177 184 159 144 148 148 135 111 87 109 134 104 188 326 305 277 306 336 176 173 207 179 163 250 268 264 255 237 227 230 224 222 223 221 221 223 223 221 219 222 224
196 200 201 203 205 203 199 198 199 202 203 206 211 214 225 231 234 243 209 194 194 193 187 184 183 178 175 182 188 190 192 191 193 196 195 192 188 187 190 193 196 198 198 198 194 185 172 180 178 148 136 139 140 132 72 36 47 65 217 258 20 191 275 309 303 195 182 214 181 167 244 262 281 283 249 227 225 225 227 228 225 222 222 223 224 223 224 226
197 201 203 205 205 204 200 198 200 203 204 205 211 214 224 233 234 248 223 191 188 187 179 175 178 175 168 174 184 184 189 192 190 191 199 201 193 186 183 186 185 183 184 183 186 183 174 173 165 144 133 132 135 113 69 87 18 34 217 239 350 328 318 320 302 212 190 140 188 207 253 268 280 307 303 226 221 221 225 229 227 226 225 224 226 226 226 226
195 200 204 205 206 208 200 199 200 202 205 206 210 214 222 231 229 241 232 189 182 179 177 176 176 174 168 164 171 180 186 186 182 180 185 192 194 187 179 172 165 167 165 161 167 169 166 160 150 143 128 119 135 128 133 210 218 42 48 201 226 255 296 299 313 304 238 125 202 226 233 248 258 274 328 263 223 221 224 229 229 229 228 226 227 227 228 227
194 199 203 205 206 210 203 201 199 200 204 205 208 212 218 228 227 236 233 193 178 175 178 176 172 168 173 177 173 180 185 179 175 171 167 175 187 185 179 168 156 156 148 143 155 156 151 146 136 130 109 130 147 152 183 205 187 171 168 185 214 215 227 258 282 325 350 304 229 210 230 253 263 269 268 269 248 231 232 235 234 235 232 228 227 227 229 229
193 197 200 203 205 208 208 203 200 200 199 200 205 207 214 225 228 237 236 195 170 171 179 165 169 178 189 180 176 178 180 175 171 170 164 167 177 178 174 165 154 150 142 135 157 155 142 119 120 163 155 157 165 179 192 177 167 171 170 172 175 207 230 245 262 294 343 287 254 218 230 251 255 262 258 244 244 241 243 242 237 239 237 233 231 230 231 232
194 198 199 202 202 204 210 207 203 201 196 196 193 189 197 204 212 232 239 223 181 174 173 168 175 184 168 166 169 171 172 172 171 170 168 167 167 162 155 154 149 148 149 141 155 158 150 146 186 183 158 164 178 186 178 154 149 141 135 164 155 178 271 274 263 289 2 256 260 235 237 256 255 260 257 231 233 239 239 241 240 240 241 239 237 235 235 236
199 202 203 203 203 202 207 210 208 202 199 200 187 180 184 184 187 202 220 243 209 181 174 174 178 179 158 162 168 167 159 163 170 168 169 168 161 151 145 150 145 149 157 132 129 142 158 188 198 170 160 171 178 163 140 135 140 131 129 158 150 148 277 278 267 288 349 211 264 278 259 264 262 264 260 221 215 236 235 237 241 241 242 243 243 241 240 240
203 206 208 207 207 207 207 208 212 206 200 206 197 190 195 196 198 192 193 240 220 194 180 175 175 165 159 163 168 165 152 148 162 164 167 167 164 157 152 157 148 145 142 125 123 132 172 204 175 154 158 159 153 141 140 145 145 136 131 135 167 179 294 288 291 333 2 214 271 318 286 264 263 262 254 222 222 243 243 244 248 247 245 245 247 247 245 243
208 210 211 212 214 213 212 209 212 210 201 207 208 201 206 210 205 199 196 269 239 197 174 172 172 157 154 159 165 164 156 151 157 164 169 168 167 163 157 158 146 140 145 148 153 156 177 194 153 149 150 140 140 160 160 161 152 142 142 146 185 140 91 272 314 352 338 192 257 312 306 274 267 264 259 236 233 245 249 248 252 250 248 251 253 256 253 247
213 215 215 217 218 218 221 214 211 215 206 207 214 207 206 214 214 213 215 337 314 218 170 173 172 159 156 160 166 165 160 162 163 166 170 169 162 158 156 151 139 138 155 155 150 149 140 153 154 149 150 148 150 169 169 175 186 172 167 164 166 153 155 214 306 331 314 262 236 304 307 277 260 257 262 246 232 242 247 243 247 247 247 251 253 257 258 251
215 219 221 219 221 221 222 221 217 215 212 215 216 210 208 208 213 214 216 8 298 287 172 171 168 163 161 161 167 164 156 161 168 167 168 169 163 153 150 152 146 150 158 144 136 142 135 162 159 147 150 154 150 171 177 174 176 199 212 180 157 162 170 216 306 343 342 318 287 306 282 270 280 261 249 248 225 239 242 233 239 244 245 245 248 254 257 254
216 221 222 220 222 222 221 226 225 216 218 226 218 210 212 209 204 204 203 352 239 274 218 169 163 167 165 160 162 159 151 152 169 166 166 170 167 153 144 152 139 150 152 138 133 149 149 167 163 153 156 157 157 177 181 168 153 208 203 168 160 165 157 206 279 340 243 273 265 147 227 270 302 271 243 236 237 247 248 238 242 245 244 242 246 252 255 254
220 223 223 222 219 218 220 223 224 218 219 226 220 212 212 207 199 191 184 298 240 200 210 176 163 169 167 162 161 158 152 149 159 169 167 168 167 156 154 161 129 151 154 137 156 188 147 155 162 161 156 161 174 182 185 170 153 227 192 166 173 179 175 186 203 226 233 285 288 195 183 268 278 264 257 188 241 262 266 261 255 249 244 242 245 249 251 253
223 226 227 225 219 217 218 217 220 219 220 225 221 213 210 205 196 178 169 257 211 130 185 208 163 167 164 162 163 153 139 148 152 174 169 164 165 157 160 174 144 149 159 157 180 196 143 165 174 165 159 179 186 173 175 165 146 235 186 166 176 172 169 156 131 207 253 331 277 246 149 238 259 266 335 24 234 254 259 255 252 247 244 243 243 246 249 249
226 229 231 228 225 221 219 221 218 208 217 226 224 217 210 200 183 159 164 241 157 90 170 173 160 165 159 160 163 139 137 150 141 161 166 161 165 159 150 160 141 129 127 127 158 168 178 185 176 162 168 187 165 141 166 160 121 171 142 112 108 96 104 114 123 171 85 269 253 238 172 232 261 252 276 287 234 236 248 253 248 247 246 245 246 246 248 248
235 235 236 233 231 218 214 223 219 204 206 216 220 218 204 188 168 164 218 212 126 100 160 166 169 166 156 153 155 135 137 145 130 146 160 150 147 141 123 136 130 113 84 62 103 153 101 163 167 160 166 158 115 105 155 150 130 139 118 85 75 53 62 77 85 101 89 258 260 241 184 215 276 246 200 219 220 205 220 242 253 253 249 247 250 251 250 249
247 243 237 236 235 219 213 224 222 210 200 203 213 204 188 176 167 210 207 141 89 152 162 167 163 165 160 148 140 142 133 124 136 143 152 135 135 129 121 129 119 100 94 72 83 51 63 117 163 153 138 132 110 96 110 112 131 134 111 106 101 28 32 33 10 74 204 243 294 330 164 169 246 247 202 237 239 210 209 218 230 243 246 246 249 252 251 250
259 251 242 237 238 229 219 223 225 212 200 197 200 186 174 183 197 202 176 130 144 178 166 169 161 163 166 146 138 145 133 135 151 149 151 151 149 147 146 165 154 127 152 149 119 71 74 121 164 126 148 147 130 112 69 35 85 106 104 119 113 33 35 333 269 164 237 239 278 296 157 186 244 245 238 256 258 237 229 225 225 231 241 245 247 249 251 250
280 263 249 239 237 233 224 222 223 214 204 201 197 179 168 248 208 160 149 162 180 164 151 166 163 161 162 148 136 136 129 138 155 155 153 150 152 152 130 153 154 128 146 146 120 115 81 339 190 146 163 171 155 140 149 160 142 143 146 148 149 135 153 205 200 221 253 245 229 204 169 247 270 259 228 232 234 233 234 237 239 241 246 250 251 251 251 248
289 274 258 243 239 236 230 225 219 215 203 202 206 189 180 231 217 118 155 184 142 110 144 160 161 163 164 155 148 139 123 141 154 150 147 147 157 161 136 164 172 111 118 138 135 158 155 239 199 182 172 178 176 169 161 154 157 170 162 156 168 169 178 191 188 213 235 252 261 227 181 214 224 268 241 237 252 252 245 243 243 244 246 250 254 255 253 249
281 277 264 248 242 234 230 226 217 211 193 191 207 228 197 206 212 140 157 163 136 126 143 160 159 161 160 154 155 135 97 153 156 146 154 161 168 172 166 179 184 149 140 156 160 166 170 202 202 175 164 169 174 166 137 129 139 198 123 125 193 185 149 133 183 201 161 342 266 220 230 220 207 284 280 267 276 272 255 248 246 243 241 243 249 252 252 251
281 275 264 254 242 228 223 222 214 208 194 181 198 246 219 203 195 169 156 155 162 147 142 157 166 161 153 153 159 123 76 144 155 147 166 168 171 177 172 177 184 175 162 156 128 162 168 155 6 85 146 173 173 156 151 151 145 128 171 182 197 160 112 108 193 53 76 224 243 195 244 280 318 284 277 262 267 278 264 251 245 243 242 244 247 247 248 251
285 276 262 254 243 230 221 217 212 208 199 185 212 230 230 259 226 198 161 159 160 152 147 156 181 174 154 137 144 135 115 132 157 153 161 166 179 182 174 177 185 185 175 152 118 194 153 89 322 107 145 189 178 154 164 175 145 138 189 183 135 69 86 115 180 44 87 233 266 216 235 264 277 263 287 272 247 264 268 248 241 244 246 249 250 247 247 252
284 279 267 256 244 231 222 215 210 205 197 190 225 220 209 261 222 235 181 157 154 160 159 161 167 174 174 155 141 147 141 145 169 167 158 172 201 184 178 184 185 186 183 149 99 179 140 91 328 176 142 193 171 146 167 215 163 148 171 160 137 151 206 165 160 178 190 224 273 286 256 244 215 235 303 268 232 241 256 253 246 244 240 242 247 250 256 265
280 273 261 254 237 223 221 214 203 199 194 196 222 217 188 158 204 219 204 169 156 168 168 169 182 171 183 169 148 156 158 158 169 168 167 182 205 187 182 179 176 184 185 149 116 160 132 109 115 303 141 150 151 167 180 191 175 61 127 162 166 11 189 181 162 164 181 205 249 299 314 259 224 217 216 232 235 234 249 262 257 245 243 244 252 259 267 275
262 246 253 251 228 214 212 206 197 196 195 208 217 209 132 170 188 211 217 193 163 176 179 176 183 164 166 164 150 159 162 158 169 172 174 178 173 193 188 176 162 172 167 119 129 151 111 110 133 116 137 154 179 204 189 175 167 153 163 181 197 163 133 181 184 147 131 166 210 259 278 262 244 204 196 215 229 224 232 248 248 253 261 264 269 273 276 275
246 231 249 247 230 205 195 192 193 193 199 213 219 196 156 213 173 185 214 215 196 200 171 167 173 161 154 156 158 166 157 152 173 178 172 176 165 191 191 175 154 156 151 115 138 153 95 107 133 137 168 178 206 228 186 181 183 175 173 184 189 181 144 167 209 196 124 168 178 178 259 265 245 204 206 215 226 233 247 268 270 283 295 289 288 294 294 287
240 234 237 240 230 193 179 179 184 185 204 208 199 165 159 207 184 174 197 217 242 354 83 134 151 154 160 160 160 165 157 156 178 184 180 181 175 166 174 162 151 154 154 126 139 147 101 100 115 123 177 199 263 279 233 203 197 185 201 192 177 182 182 188 212 198 142 205 161 135 264 278 240 194 209 233 262 290 297 289 288 294 296 293 297 297 292 292
232 238 236 238 223 187 172 176 190 186 207 194 181 168 149 161 193 184 187 195 219 265 143 124 129 162 180 166 156 159 155 156 176 174 116 133 161 146 153 151 149 154 152 126 145 149 107 100 106 105 137 272 308 290 319 41 176 205 231 195 152 191 201 187 183 158 167 218 195 194 258 274 275 194 213 244 270 286 280 273 274 282 290 297 300 293 283 281
236 238 225 220 207 185 173 179 183 184 195 180 182 175 148 154 180 188 195 187 186 187 161 158 164 171 178 162 162 165 158 153 167 159 109 124 154 149 149 151 154 161 163 154 164 166 132 118 128 123 126 29 352 281 233 229 203 206 212 173 166 183 163 134 135 119 234 214 177 198 244 248 277 313 268 262 268 275 273 272 272 278 292 306 307 298 285 277
248 239 209 194 188 181 183 191 178 179 179 167 179 175 161 170 185 188 202 201 192 182 161 162 153 125 134 152 152 159 158 144 155 156 119 113 104 146 155 158 164 168 162 154 158 156 142 145 147 140 152 182 193 197 201 193 180 188 167 175 192 183 162 173 156 139 234 215 164 197 236 250 298 294 264 280 286 275 266 265 272 280 296 309 308 300 289 282
236 223 200 181 178 179 188 191 182 179 172 163 173 177 172 178 186 193 202 215 249 187 143 127 123 103 122 151 142 163 176 51 103 145 131 137 135 218 168 165 167 166 156 154 154 142 110 161 180 176 178 186 189 180 141 126 145 193 192 183 193 190 178 173 141 194 222 198 180 224 234 255 279 244 241 275 278 273 268 247 242 274 307 315 312 313 314 309
225 214 208 172 171 179 187 187 185 183 170 170 173 165 175 180 173 189 196 208 296 227 143 121 147 145 160 161 155 173 170 70 94 146 141 144 116 62 168 168 167 164 158 160 163 145 103 188 197 193 190 179 153 146 136 142 170 191 184 181 190 188 183 184 202 218 202 128 229 235 222 237 247 227 246 269 255 241 269 291 305 322 333 331 324 322 328 329
226 232 206 179 164 175 182 180 184 179 169 174 175 160 175 182 174 179 182 184 289 233 159 136 172 170 168 165 160 165 162 114 118 152 145 151 132 115 161 174 178 170 163 167 177 160 137 193 193 187 185 134 97 148 153 158 177 179 173 183 187 184 188 197 216 223 186 181 237 217 180 226 233 190 227 251 251 229 243 314 326 327 327 330 331 325 326 332
219 236 206 187 175 164 170 171 173 176 175 173 173 171 174 176 177 179 165 143 219 225 184 166 179 177 170 167 157 155 167 168 170 176 169 159 153 145 156 177 200 180 169 171 187 174 119 191 184 163 154 60 47 140 156 151 146 154 180 188 182 187 196 201 217 223 204 226 246 212 192 245 235 184 223 241 264 278 291 303 300 298 298 305 313 314 319 326
212 213 191 187 189 164 164 169 171 174 177 173 174 177 170 171 178 179 167 161 171 196 197 183 178 176 173 171 171 179 188 186 181 180 166 153 155 161 163 162 177 176 169 169 194 293 55 165 128 119 120 30 15 36 88 140 152 164 190 196 191 197 203 208 220 221 209 236 245 237 267 272 237 207 236 253 265 278 289 288 284 280 278 281 286 290 295 299
217 208 184 170 166 166 167 171 170 170 176 179 178 170 166 175 177 171 178 183 175 181 193 186 176 173 173 181 192 196 188 175 155 155 156 150 153 161 165 157 151 154 152 158 173 37 58 95 54 99 120 332 352 66 73 99 127 166 213 211 201 199 205 212 218 210 207 227 234 230 256 261 223 193 222 247 258 265 265 267 272 271 265 268 278 282 286 288
218 211 186 168 154 167 169 168 171 173 177 179 176 171 172 178 176 169 174 198 207 218 206 182 169 165 175 191 198 186 154 127 119 140 149 142 136 140 141 146 153 154 146 138 144 113 116 121 98 123 142 232 286 119 111 100 91 253 239 213 199 201 208 215 221 217 213 217 216 218 234 236 175 162 195 220 235 248 257 262 269 273 271 273 280 284 288 288